TimeEDT,TemperatureF,Dew PointF,Humidity,Sea Level PressureIn,VisibilityMPH,Wind Direction,Wind SpeedMPH,Gust SpeedMPH,PrecipitationIn,Events,Conditions,WindDirDegrees,DateUTC
12:15 AM,66.2,66.2,100,30.01,3.0,Calm,Calm,-,N/A,,Clear,0,2013-05-01 04:15:00
12:35 AM,66.2,66.2,100,30.01,0.5,Calm,Calm,-,N/A,Fog,Fog,0,2013-05-01 04:35:00
12:55 AM,66.2,66.2,100,30.00,1.0,ENE,3.5,-,N/A,,Mist,70,2013-05-01 04:55:00
1:15 AM,68.0,68.0,100,29.99,7.0,Calm,Calm,-,N/A,,Clear,0,2013-05-01 05:15:00
1:35 AM,66.2,66.2,100,29.99,5.0,Calm,Calm,-,N/A,,Clear,0,2013-05-01 05:35:00
1:55 AM,66.2,66.2,100,29.98,2.0,Calm,Calm,-,N/A,,Clear,0,2013-05-01 05:55:00
2:15 AM,66.2,66.2,100,29.97,3.0,Calm,Calm,-,N/A,,Clear,0,2013-05-01 06:15:00
2:35 AM,64.4,64.4,100,29.97,1.0,NE,3.5,-,N/A,,Mist,50,2013-05-01 06:35:00
2:55 AM,64.4,64.4,100,29.96,5.0,NE,3.5,-,N/A,,Clear,40,2013-05-01 06:55:00
3:15 AM,64.4,64.4,100,29.96,5.0,Calm,Calm,-,N/A,,Clear,0,2013-05-01 07:15:00
3:35 AM,64.4,64.4,100,29.96,4.0,Calm,Calm,-,N/A,,Clear,0,2013-05-01 07:35:00
4:15 AM,64.4,64.4,100,29.97,3.0,Calm,Calm,-,N/A,,Clear,0,2013-05-01 08:15:00
4:35 AM,64.4,64.4,100,29.96,4.0,Calm,Calm,-,N/A,,Clear,0,2013-05-01 08:35:00
4:55 AM,66.2,66.2,100,29.96,5.0,ENE,3.5,-,N/A,,Clear,70,2013-05-01 08:55:00
5:15 AM,66.2,66.2,100,29.96,5.0,East,4.6,-,N/A,,Clear,80,2013-05-01 09:15:00
5:35 AM,68.0,68.0,100,29.96,5.0,Calm,Calm,-,N/A,,Clear,0,2013-05-01 09:35:00
5:55 AM,68.0,68.0,100,29.96,5.0,Calm,Calm,-,N/A,,Clear,0,2013-05-01 09:55:00
6:15 AM,66.2,66.2,100,29.97,5.0,Calm,Calm,-,N/A,,Clear,0,2013-05-01 10:15:00
6:35 AM,66.2,66.2,100,29.98,5.0,Calm,Calm,-,N/A,,Clear,0,2013-05-01 10:35:00
6:55 AM,66.2,66.2,100,29.98,5.0,Calm,Calm,-,N/A,,Clear,0,2013-05-01 10:55:00
7:15 AM,66.2,66.2,100,29.99,3.0,Calm,Calm,-,N/A,,Clear,0,2013-05-01 11:15:00
7:35 AM,68.0,68.0,100,29.99,5.0,ENE,3.5,-,N/A,,Clear,70,2013-05-01 11:35:00
7:55 AM,68.0,68.0,100,30.00,7.0,Calm,Calm,-,N/A,,Clear,0,2013-05-01 11:55:00
8:15 AM,69.8,68.0,94,30.00,10.0,East,3.5,-,N/A,,Clear,80,2013-05-01 12:15:00
8:35 AM,69.8,69.8,100,30.00,10.0,East,3.5,-,N/A,,Clear,90,2013-05-01 12:35:00
8:55 AM,71.6,69.8,94,29.99,10.0,East,4.6,-,N/A,,Clear,90,2013-05-01 12:55:00
9:15 AM,71.6,69.8,94,29.99,10.0,East,4.6,-,N/A,,Clear,100,2013-05-01 13:15:00
9:35 AM,73.4,71.6,94,29.99,10.0,East,3.5,-,N/A,,Clear,90,2013-05-01 13:35:00
9:55 AM,77.0,71.6,83,30.00,10.0,East,4.6,-,N/A,,Clear,100,2013-05-01 13:55:00
10:15 AM,77.0,71.6,83,30.02,10.0,ESE,8.1,-,N/A,,Clear,110,2013-05-01 14:15:00
10:35 AM,77.0,69.8,78,30.03,10.0,ESE,8.1,-,N/A,,Clear,120,2013-05-01 14:35:00
10:55 AM,77.0,69.8,78,30.03,10.0,ESE,8.1,-,N/A,,Clear,120,2013-05-01 14:55:00
11:15 AM,78.8,69.8,74,30.02,10.0,SE,5.8,-,N/A,,Scattered Clouds,130,2013-05-01 15:15:00
11:35 AM,78.8,69.8,74,30.02,10.0,Calm,Calm,-,N/A,,Scattered Clouds,0,2013-05-01 15:35:00
11:55 AM,78.8,69.8,74,30.02,10.0,ESE,3.5,-,N/A,,Mostly Cloudy,120,2013-05-01 15:55:00
12:15 PM,78.8,69.8,74,30.01,10.0,ESE,3.5,-,N/A,,Mostly Cloudy,120,2013-05-01 16:15:00
12:35 PM,78.8,68.0,69,30.00,10.0,ESE,3.5,-,N/A,,Mostly Cloudy,120,2013-05-01 16:35:00
12:55 PM,80.6,68.0,65,29.99,10.0,Calm,Calm,-,N/A,,Scattered Clouds,0,2013-05-01 16:55:00
1:15 PM,80.6,68.0,65,30.00,10.0,ESE,5.8,-,N/A,,Clear,110,2013-05-01 17:15:00
1:35 PM,80.6,69.8,70,29.99,10.0,Calm,Calm,-,N/A,,Scattered Clouds,0,2013-05-01 17:35:00
1:55 PM,80.6,69.8,70,29.97,10.0,ENE,5.8,-,N/A,,Clear,70,2013-05-01 17:55:00
2:15 PM,80.6,69.8,70,29.96,10.0,NE,6.9,-,N/A,,Scattered Clouds,40,2013-05-01 18:15:00
2:35 PM,80.6,68.0,65,29.97,10.0,NE,5.8,-,N/A,,Scattered Clouds,50,2013-05-01 18:35:00
2:55 PM,80.6,68.0,65,29.96,10.0,NNE,6.9,-,N/A,Thunderstorm,Scattered Clouds,30,2013-05-01 18:55:00
3:15 PM,78.8,68.0,69,29.96,10.0,East,9.2,-,N/A,,Mostly Cloudy,80,2013-05-01 19:15:00
3:35 PM,69.8,68.0,94,29.99,0.5,East,9.2,21.9,0.87,Rain-Thunderstorm,Heavy Thunderstorms and Rain,100,2013-05-01 19:35:00
3:55 PM,66.2,66.2,100,29.97,0.8,ESE,15.0,-,2.22,Rain-Thunderstorm,Heavy Thunderstorms and Rain,110,2013-05-01 19:55:00
4:15 PM,68.0,66.2,94,30.02,1.0,WSW,18.4,27.6,0.81,Rain-Thunderstorm,Heavy Thunderstorms and Rain,240,2013-05-01 20:15:00
4:35 PM,66.2,64.4,94,30.02,2.5,SSW,5.8,-,1.23,Rain-Thunderstorm,Heavy Thunderstorms and Rain,210,2013-05-01 20:35:00
5:15 PM,64.4,64.4,100,30.00,2.0,NE,3.5,-,0.17,Rain,Heavy Rain,40,2013-05-01 21:15:00
5:35 PM,66.2,66.2,100,29.99,7.0,Calm,Calm,-,0.21,Rain,Light Rain,0,2013-05-01 21:35:00
5:55 PM,66.2,66.2,100,29.99,10.0,NE,5.8,-,0.23,Rain,Rain,40,2013-05-01 21:55:00
6:15 PM,66.2,64.4,94,29.98,10.0,North,4.6,-,N/A,,Overcast,360,2013-05-01 22:15:00
6:35 PM,66.2,64.4,94,29.98,10.0,Calm,Calm,-,N/A,Thunderstorm,Overcast,0,2013-05-01 22:35:00
6:55 PM,66.2,66.2,100,29.99,10.0,Calm,Calm,-,N/A,Rain,Rain,0,2013-05-01 22:55:00
7:15 PM,66.2,66.2,100,30.00,10.0,WSW,4.6,-,0.01,Rain,Light Rain,240,2013-05-01 23:15:00
7:35 PM,66.2,66.2,100,29.97,7.0,ENE,5.8,-,0.01,,Drizzle,60,2013-05-01 23:35:00
7:55 PM,66.2,66.2,100,29.98,10.0,Calm,Calm,-,0.04,Rain,Light Rain,0,2013-05-01 23:55:00
8:15 PM,66.2,66.2,100,29.97,10.0,NNE,4.6,-,0.02,Rain,Rain,30,2013-05-02 00:15:00
8:35 PM,66.2,66.2,100,29.97,10.0,ENE,4.6,-,0.02,Rain,Light Rain,60,2013-05-02 00:35:00
8:55 PM,66.2,64.4,94,29.96,10.0,East,8.1,-,0.02,,Light Drizzle,80,2013-05-02 00:55:00
9:15 PM,66.2,64.4,94,29.96,7.0,ENE,5.8,-,0.04,Rain,Rain,70,2013-05-02 01:15:00
9:35 PM,66.2,64.4,94,29.97,10.0,East,4.6,-,0.09,Rain,Light Rain,90,2013-05-02 01:35:00
9:55 PM,66.2,64.4,94,29.97,10.0,ENE,4.6,-,0.10,Rain,Light Rain,60,2013-05-02 01:55:00
10:15 PM,66.2,64.4,94,29.97,10.0,Calm,Calm,-,0.02,,Light Drizzle,0,2013-05-02 02:15:00
10:35 PM,66.2,66.2,100,29.97,10.0,NNE,4.6,-,0.02,Rain,Light Rain,30,2013-05-02 02:35:00
10:55 PM,66.2,66.2,100,29.96,10.0,NE,5.8,-,0.02,,Light Drizzle,40,2013-05-02 02:55:00
11:35 PM,66.2,66.2,100,29.98,5.0,Calm,Calm,-,0.03,Rain,Heavy Rain,0,2013-05-02 03:35:00
11:55 PM,66.2,66.2,100,29.98,10.0,Calm,Calm,-,0.04,,Light Drizzle,0,2013-05-02 03:55:00